Wind_Speed
16 17 17 17 14 17 18 20 21 23 25 26 29 33 33 34 34 39 32 37 31 11 23 22 28 23 17 15 15 19 11 10 8 9 10 12 7 8 13 18 19 18 17 14 8 11 17 16 13 15 15 21 22 13
17 18 18 19 18 18 19 20 23 25 26 27 30 33 36 33 32 35 25 37 44 11 12 23 47 44 40 36 19 15 13 9 8 5 5 6 10 10 15 15 20 17 16 15 16 12 16 14 15 19 21 22 13 12
17 19 20 21 19 20 20 22 24 26 28 29 32 35 30 27 30 35 32 29 28 9 3 5 14 32 43 41 40 17 8 11 9 9 8 8 12 9 11 17 24 19 20 13 13 19 21 18 17 20 22 24 23 4
18 19 20 22 21 21 20 23 25 27 28 30 32 32 26 27 30 30 26 23 24 3 4 3 11 20 33 36 34 28 19 14 14 7 5 3 3 8 14 15 12 12 15 21 22 20 18 20 17 20 19 17 24 12
19 20 21 23 22 21 21 23 25 27 28 30 31 21 24 25 29 33 24 26 32 5 1 2 6 19 23 30 29 30 21 19 6 5 4 5 4 1 6 7 11 15 18 14 15 17 14 20 18 20 16 17 22 24
20 20 21 23 23 22 22 23 25 27 27 28 29 11 3 14 27 16 2 10 24 11 2 2 3 4 8 13 13 12 8 6 6 4 2 4 11 5 4 7 18 18 20 20 20 20 19 25 21 22 16 18 25 24
20 21 21 23 24 24 23 22 24 25 26 29 19 14 13 16 5 1 1 5 34 20 3 2 3 2 4 2 3 2 5 2 1 1 3 5 8 2 4 13 23 19 21 20 22 21 22 21 16 6 11 16 26 14
20 21 21 22 24 24 23 21 22 23 24 28 12 16 13 9 1 2 3 12 35 6 4 3 2 3 2 2 2 1 2 2 4 3 3 6 4 4 6 22 20 20 21 21 22 21 22 22 18 12 10 9 19 12
21 21 21 22 24 23 21 19 20 19 21 21 14 20 9 2 1 2 5 15 23 4 2 3 5 3 5 2 2 1 0 2 2 3 4 5 5 8 14 17 19 21 20 20 20 21 21 24 20 12 8 5 9 8
22 22 21 22 24 23 20 17 16 15 16 15 4 4 2 2 4 3 3 2 1 2 2 3 4 3 4 3 3 4 3 3 2 5 2 4 9 21 22 21 20 21 20 20 17 19 17 19 13 14 14 13 10 7
21 20 20 21 23 22 19 15 14 11 9 1 1 1 3 4 3 1 2 3 3 2 4 5 5 6 4 5 4 5 3 2 3 3 5 4 6 10 3 7 9 12 14 17 9 11 3 10 13 9 7 9 10 11
20 19 20 21 22 21 18 15 13 8 4 2 5 5 3 1 2 4 4 3 5 5 5 3 4 4 3 1 2 2 2 2 5 6 3 4 3 10 13 13 14 13 12 11 5 11 8 3 3 5 5 4 8 10
20 19 20 21 22 21 17 16 14 13 10 5 3 3 3 3 4 4 7 5 4 6 5 4 3 3 3 1 1 2 4 5 4 3 4 2 10 12 13 10 13 12 15 12 8 3 6 5 7 6 7 12 17 14
19 19 21 22 21 21 15 16 12 14 3 2 4 6 4 5 4 4 5 5 4 4 7 6 3 3 3 4 3 4 4 3 3 4 5 6 13 13 12 8 8 9 14 13 13 15 17 16 16 14 14 19 19 15
17 19 23 25 24 19 13 12 17 9 3 3 3 3 5 2 2 4 4 6 7 7 7 5 2 2 2 2 3 4 2 4 4 2 3 7 13 11 11 7 8 8 8 10 11 13 15 16 15 14 19 22 25 25
13 19 21 18 16 11 16 13 5 4 2 2 4 3 2 4 1 3 6 6 5 6 5 2 4 3 4 3 4 6 3 3 3 3 6 9 13 11 8 8 7 6 7 9 10 11 14 16 17 17 23 23 25 27
10 8 8 8 11 12 14 8 5 2 2 3 2 1 4 3 5 5 6 4 2 3 2 2 4 4 3 3 3 3 2 4 4 5 6 11 9 7 7 6 6 9 11 12 13 13 12 19 23 19 17 21 27 27
10 16 19 12 5 11 8 6 3 4 4 2 3 3 2 3 5 4 3 5 4 2 2 1 0 3 2 2 1 3 5 4 5 7 6 7 8 7 6 7 8 10 12 12 14 16 18 16 17 12 21 25 28 26
16 18 19 14 9 3 4 5 4 3 2 4 3 2 2 3 3 4 4 4 2 3 1 0 1 2 1 4 5 6 4 5 6 5 5 7 6 7 7 6 9 11 10 11 13 11 16 20 17 19 19 20 17 20
18 24 24 17 8 3 4 3 2 2 3 4 4 3 4 4 4 4 5 4 3 1 1 1 2 2 2 2 3 4 4 6 6 6 5 5 5 6 9 9 9 16 16 20 21 21 19 20 21 21 21 21 20 18
9 7 10 11 9 9 3 3 2 2 3 3 6 4 4 5 6 6 4 3 2 2 2 2 2 1 1 0 1 4 6 4 5 6 6 6 4 6 6 12 16 16 10 9 11 12 18 15 20 22 23 23 24 24
6 13 8 10 1 2 3 1 3 4 2 4 6 4 4 4 4 3 4 3 2 2 2 1 1 1 2 3 6 8 12 14 14 10 12 10 7 7 8 10 10 10 9 12 15 11 17 20 20 21 22 22 22 21
10 7 6 3 2 2 1 3 2 4 4 6 5 4 3 3 3 4 3 3 2 2 1 3 6 7 6 8 12 13 14 11 8 9 9 9 15 16 16 17 17 11 10 16 20 20 20 21 21 20 20 20 20 20
10 2 2 3 2 3 2 2 3 3 3 5 4 4 3 3 4 2 3 3 2 3 3 3 5 7 7 10 8 8 11 16 13 15 16 13 10 11 18 20 21 21 20 20 19 20 19 19 18 18 18 17 16 16
4 1 2 3 2 4 4 3 2 3 3 3 3 3 3 3 2 2 4 3 4 4 4 3 3 6 8 8 5 5 13 15 9 10 14 17 19 18 18 21 20 19 16 17 16 17 18 18 18 18 17 16 17 16
3 3 2 4 5 5 5 5 4 5 6 3 2 3 2 2 2 4 3 5 4 3 3 6 7 6 7 8 8 8 11 18 19 9 14 14 16 13 9 9 9 12 14 15 15 16 18 17 18 19 19 19 19 15
4 3 3 2 4 6 4 6 7 5 4 4 4 3 3 4 3 2 3 4 3 3 5 12 14 8 9 8 17 20 21 20 19 19 21 26 25 22 18 13 10 15 16 16 17 17 17 17 17 17 17 17 17 15
2 4 6 5 4 4 3 5 4 4 4 5 6 2 3 3 3 2 2 5 11 16 19 19 20 18 18 17 18 19 21 23 26 28 30 28 25 24 23 23 21 19 21 19 19 18 18 18 18 17 17 16 15 14
2 7 7 6 4 4 4 2 2 2 1 5 3 3 3 3 3 3 6 10 11 13 12 12 16 19 20 18 18 16 14 12 12 14 15 8 8 13 15 16 17 18 19 21 21 20 20 20 19 18 17 16 15 13
7 6 4 5 4 3 2 4 2 4 5 6 5 7 8 4 9 9 10 10 9 7 12 15 16 16 13 14 12 16 20 13 10 12 8 9 10 15 14 15 15 15 15 17 19 18 18 18 17 16 15 14 14 14
6 5 4 4 4 3 5 6 6 7 7 7 9 10 9 5 6 16 17 11 15 16 16 13 14 13 14 13 11 8 9 14 20 22 25 22 19 16 15 15 14 14 14 14 14 14 15 16 16 16 16 16 16 14
3 3 6 7 7 6 4 3 4 9 7 9 8 7 6 4 4 3 15 13 11 12 15 16 14 14 16 20 20 20 22 21 21 22 21 20 19 17 16 16 15 15 16 16 16 16 16 16 16 17 17 16 14 13
9 10 12 8 5 3 3 3 4 4 4 4 3 4 5 4 4 2 8 20 15 16 18 19 20 22 23 24 25 26 24 23 21 21 20 20 18 18 17 16 16 17 17 18 18 17 18 18 18 17 16 15 13 12
Wind_Direction
311 317 321 304 296 266 272 274 279 282 282 283 282 281 277 270 254 238 232 218 212 235 249 235 239 249 246 248 249 261 254 236 234 231 237 240 240 231 248 248 250 250 242 236 235 247 257 263 251 237 261 294 282 288
312 314 314 311 299 286 277 282 286 288 287 288 290 292 287 267 248 235 232 220 214 224 261 235 232 239 235 243 256 255 244 218 210 201 223 237 240 261 248 259 249 249 244 250 230 246 252 268 298 294 297 302 296 316
311 311 313 313 303 301 282 289 292 294 294 292 291 297 282 259 250 241 233 228 216 233 247 219 228 234 238 242 239 246 244 227 213 226 248 234 236 239 238 239 257 255 265 262 278 261 261 271 275 275 288 298 301 177
307 310 307 312 309 304 290 292 295 299 299 300 299 303 275 267 256 241 226 222 207 138 233 258 233 231 233 227 236 229 252 255 249 197 224 245 228 244 238 250 251 252 255 255 260 250 258 262 262 268 279 297 316 218
301 305 306 311 313 302 300 296 300 302 304 306 306 293 289 283 258 226 206 197 196 188 219 244 249 240 236 216 222 222 224 229 213 206 196 208 243 207 281 280 258 248 254 254 263 262 268 274 284 280 280 288 291 295
295 301 304 308 310 306 305 300 303 306 308 310 304 262 156 144 128 122 84 194 185 166 184 242 316 282 205 204 223 230 206 213 200 205 202 233 227 235 232 233 249 245 250 258 268 268 264 270 277 283 277 293 289 278
295 296 302 305 310 311 306 301 305 310 312 309 293 214 187 151 150 131 215 185 185 173 229 168 194 9 343 78 37 32 242 285 333 325 234 259 263 322 257 262 269 267 270 277 280 281 267 265 262 260 290 318 306 254
289 293 299 302 310 312 308 301 306 313 314 318 248 198 202 196 151 262 26 172 175 210 234 167 108 165 189 130 124 315 136 168 192 203 221 233 249 213 249 253 264 270 266 265 267 261 269 279 268 268 279 311 282 204
283 289 296 300 310 311 309 301 307 314 318 333 208 170 156 217 186 53 120 169 187 259 222 192 176 164 170 125 110 118 66 258 179 225 215 210 228 228 253 266 266 264 259 261 266 263 256 260 253 254 249 321 278 168
280 283 291 299 308 311 309 299 303 313 321 326 37 87 192 215 158 107 59 178 326 295 254 237 114 128 181 170 153 146 196 235 250 226 221 238 254 257 264 263 268 272 268 266 267 275 255 263 252 242 237 214 205 183
277 279 288 295 307 310 308 291 298 309 294 315 61 99 95 106 79 69 174 192 166 233 222 233 166 140 196 173 166 203 186 221 251 182 199 238 255 264 16 250 278 288 289 285 238 271 312 263 246 215 176 170 177 154
272 278 287 291 303 307 303 283 288 267 246 203 122 118 119 127 156 187 184 182 210 221 152 196 106 112 121 250 177 168 241 218 254 139 245 256 306 9 348 341 335 330 314 306 225 234 191 197 111 103 79 146 110 92
272 276 285 287 297 301 297 279 275 251 176 159 199 160 200 157 202 219 180 197 198 155 161 150 114 110 132 162 111 159 221 242 291 230 246 316 5 354 343 355 329 331 335 326 277 199 126 132 120 104 110 99 95 90
268 276 282 282 290 293 282 282 213 174 183 223 197 179 224 171 222 214 264 175 89 117 141 132 105 147 134 179 173 215 217 268 250 245 257 10 346 350 356 17 18 18 19 32 57 86 87 86 80 77 83 92 92 93
268 280 281 276 277 270 264 178 166 173 233 226 242 201 198 141 120 97 90 101 107 124 136 124 102 145 151 154 221 225 184 243 232 311 11 343 332 358 20 20 30 37 37 51 68 82 91 90 85 82 82 91 94 92
275 295 276 268 236 233 216 208 242 227 231 219 240 178 117 111 155 104 111 106 133 149 162 179 161 163 193 198 198 211 238 244 45 6 352 345 22 28 25 24 40 34 53 65 68 77 84 88 88 87 84 85 87 92
276 242 301 289 196 202 210 220 199 221 248 248 193 290 184 191 158 144 152 153 189 140 212 180 185 190 152 208 214 218 342 63 38 44 26 35 30 31 30 34 43 63 72 73 76 77 82 94 95 89 84 85 91 90
263 280 297 335 240 195 187 200 219 193 204 222 161 154 81 103 132 110 109 144 168 213 228 163 292 218 201 239 107 75 85 85 69 55 31 48 38 28 37 62 64 69 75 76 79 78 79 82 84 86 94 94 87 81
270 282 293 299 297 248 197 185 215 196 104 108 93 99 113 92 77 123 141 151 203 251 156 150 239 261 39 41 64 88 107 118 96 85 68 64 50 52 60 82 90 87 82 83 86 85 82 79 85 89 88 86 84 81
275 276 271 260 248 238 163 157 203 186 136 140 139 168 130 122 118 117 137 152 161 164 81 341 42 37 358 41 24 88 108 116 116 101 88 91 86 83 77 83 91 95 90 85 81 82 82 77 75 81 86 89 92 93
283 231 194 177 208 223 165 146 103 109 120 124 138 132 130 145 143 136 131 166 79 14 92 46 38 42 323 191 237 124 105 121 128 104 109 106 92 96 93 86 84 84 83 81 83 77 73 74 78 81 84 83 85 86
261 181 166 212 251 77 55 70 129 122 136 143 153 140 127 134 144 135 113 74 57 45 31 41 100 108 105 88 74 73 94 91 96 107 113 110 99 87 83 83 84 81 77 81 86 89 89 90 91 89 89 88 87 86
303 198 179 141 67 66 132 155 142 155 135 162 152 123 140 136 120 143 89 81 95 23 78 110 116 118 123 128 113 114 120 119 102 94 91 87 85 85 84 83 85 90 91 86 88 89 88 90 89 91 91 88 84 78
247 175 130 130 90 117 176 210 174 119 139 157 149 131 109 126 162 101 89 77 76 120 116 110 118 104 87 81 87 93 96 95 93 91 92 95 89 80 80 78 77 79 86 91 89 88 88 89 88 87 86 84 86 86
147 108 153 109 173 152 156 140 154 127 130 127 122 122 122 142 113 90 111 115 135 127 119 107 84 100 107 103 93 77 84 100 99 94 86 93 95 87 78 72 78 88 95 99 96 91 82 79 77 74 71 78 81 74
114 165 179 140 165 152 161 142 159 178 133 91 110 127 138 100 102 108 90 125 108 108 112 118 126 126 98 92 98 95 94 93 93 80 53 104 107 109 107 101 91 66 78 94 100 97 94 90 85 80 72 62 64 76
131 156 184 204 159 161 144 167 172 152 135 148 148 137 149 122 102 83 68 38 75 35 107 112 105 102 100 88 77 75 82 87 88 89 81 69 72 81 89 91 84 77 80 83 86 91 94 93 90 89 86 78 72 68
136 133 152 158 117 150 153 139 152 157 174 144 133 107 128 68 89 56 86 87 82 76 81 88 97 104 99 96 98 100 99 103 100 94 84 73 73 86 93 94 100 103 94 85 84 87 91 93 94 92 88 81 71 68
125 134 112 119 98 63 43 33 90 47 66 120 109 99 98 62 9 115 107 101 103 103 99 97 98 106 105 106 109 116 126 126 120 107 99 105 102 88 89 89 87 86 91 96 95 97 96 92 91 91 90 88 81 76
125 129 97 58 56 72 40 355 60 21 30 80 100 99 93 82 24 80 122 132 124 115 117 120 126 126 125 123 105 73 60 81 121 124 125 122 120 117 107 101 97 96 96 94 93 90 83 87 90 92 92 90 87 83
126 97 81 83 81 94 92 80 76 63 74 85 98 111 118 122 82 40 29 47 114 128 130 123 118 120 122 123 123 107 86 63 98 112 115 118 120 116 110 107 106 105 104 104 104 102 101 97 96 95 94 92 88 86
112 106 120 122 125 152 154 91 85 101 95 102 108 120 141 112 80 51 359 358 103 99 101 106 103 92 89 94 100 105 111 109 105 110 117 118 116 116 115 114 114 113 111 108 107 107 108 106 105 104 101 96 93 89
113 113 112 115 127 111 150 118 90 88 85 97 79 70 66 57 81 90 21 41 83 95 96 96 97 100 105 105 108 114 117 118 120 122 123 122 122 121 119 118 116 114 112 110 110 111 111 112 109 107 105 102 95 87
Height
703 701 698 698 697 698 698 699 699 698 697 696 695 694 691 689 690 695 692 699 702 693 681 691 691 692 690 692 693 676 696 691 696 700 701 690 696 688 682 675 674 680 682 681 689 685 672 638 639 656 638 625 614 619
699 697 695 694 692 691 691 691 691 690 688 686 684 681 677 675 675 679 678 682 686 687 670 677 677 677 680 682 682 679 680 677 687 688 691 676 678 670 669 673 658 671 666 667 661 645 634 633 634 634 631 625 620 618
694 692 691 689 686 684 684 684 683 681 679 676 673 668 662 661 663 665 664 670 674 671 673 673 664 666 672 670 673 679 678 673 677 674 676 671 671 659 666 659 648 651 647 657 662 638 632 631 629 627 629 625 621 616
690 688 686 684 681 679 678 677 675 672 669 665 661 654 650 648 648 651 653 656 664 670 666 655 653 653 653 658 661 664 669 671 672 669 677 673 666 653 646 639 644 640 641 639 631 626 630 626 624 623 622 620 619 615
685 683 681 678 676 674 671 669 667 664 661 655 650 644 640 633 628 637 645 647 653 657 651 651 646 643 645 646 652 657 662 664 664 667 670 668 665 670 660 644 639 631 631 632 627 624 623 619 617 617 617 611 616 616
680 678 676 673 670 667 665 663 660 657 652 646 643 640 637 629 628 633 645 646 646 650 652 649 650 643 641 644 647 648 652 658 663 665 659 655 647 657 647 635 625 623 620 619 615 612 613 610 611 610 606 606 602 602
674 673 670 668 665 662 659 657 653 649 644 640 635 635 637 635 633 633 636 633 640 647 645 649 643 647 645 646 652 652 654 656 660 663 659 655 645 645 640 632 607 615 615 612 608 605 601 601 602 605 607 603 605 590
668 667 665 663 660 656 653 651 648 644 639 633 629 631 635 636 635 634 633 630 639 646 635 639 644 648 650 652 655 657 658 661 661 658 656 646 646 649 639 608 604 608 606 604 600 597 596 595 595 600 602 603 600 595
662 661 659 657 654 651 648 646 643 640 635 628 625 629 633 635 634 633 634 636 639 637 631 627 628 636 646 648 654 656 655 651 652 651 643 640 631 626 603 601 599 596 596 593 589 589 589 585 585 591 594 592 597 591
656 655 654 652 649 645 643 642 640 637 633 630 626 629 634 634 634 634 637 637 635 634 627 622 622 636 642 645 644 652 654 646 641 632 630 630 610 601 596 592 591 587 586 583 583 582 582 580 576 581 588 591 599 598
650 649 648 646 643 641 639 638 637 635 632 631 630 630 633 633 634 637 638 637 634 633 622 612 614 630 635 636 637 639 641 632 630 615 627 609 594 586 587 595 586 583 578 572 570 576 579 581 577 580 585 588 592 594
644 643 642 641 638 636 634 634 633 633 630 630 630 631 633 633 633 629 627 624 621 607 609 610 619 622 629 629 629 632 632 629 625 619 624 602 585 586 587 585 584 580 575 569 567 575 576 578 580 581 585 587 591 598
638 637 636 635 633 630 629 628 628 628 627 629 629 628 626 628 621 617 614 608 603 607 614 620 626 630 634 634 636 637 638 627 608 614 601 587 589 592 592 592 593 585 584 574 568 570 577 580 586 590 595 600 603 608
632 632 631 629 627 625 623 622 623 625 627 624 620 616 616 614 609 602 591 586 599 604 611 617 625 627 630 633 631 633 625 616 615 611 595 602 600 596 596 600 598 598 595 586 580 582 587 594 598 604 608 607 611 617
627 626 624 621 620 620 620 619 621 623 622 619 614 603 608 601 603 601 598 599 603 606 614 619 624 622 627 632 625 620 625 622 609 601 614 611 605 601 606 604 605 604 603 601 600 600 602 603 608 613 616 619 621 624
623 620 612 611 613 615 617 618 619 619 614 613 608 604 603 606 607 605 607 611 609 613 614 614 618 623 622 618 620 618 610 604 615 618 618 613 615 620 620 618 616 614 611 609 609 610 611 613 617 624 631 633 634 637
619 614 606 609 611 613 615 617 616 614 612 608 603 600 600 600 604 608 609 613 613 615 617 609 616 612 608 611 612 603 609 621 621 625 626 627 628 629 628 626 624 621 619 619 621 623 626 628 630 632 640 646 647 652
614 609 608 608 611 611 611 612 610 608 608 604 602 602 602 601 604 609 612 612 614 613 609 609 607 609 611 604 602 617 625 630 632 633 634 636 636 634 632 631 630 630 630 630 632 634 636 636 638 646 651 654 656 661
609 607 606 607 607 606 603 602 601 600 600 603 607 606 606 608 607 609 612 615 614 614 612 612 614 610 611 616 619 623 628 631 636 639 641 642 642 640 639 638 637 638 639 640 641 644 646 648 651 655 659 662 665 673
605 602 600 603 604 601 594 595 596 593 597 602 606 607 607 608 611 612 613 614 615 615 619 618 624 630 630 631 631 630 632 635 638 641 643 644 645 644 644 645 646 647 647 649 651 653 657 661 665 669 672 676 680 687
601 595 597 598 599 596 590 591 593 597 599 601 603 605 607 609 610 612 614 613 619 625 629 632 634 636 636 635 634 633 636 638 638 643 647 648 649 648 649 651 652 653 655 659 661 666 668 672 677 681 683 687 691 695
595 594 595 594 589 588 591 591 592 596 599 600 604 603 609 610 611 610 611 620 629 634 634 635 636 636 636 636 637 637 638 641 644 648 650 651 653 655 657 659 660 663 667 670 674 677 681 685 688 690 692 696 699 701
594 591 589 589 594 595 599 594 594 594 601 602 601 603 605 606 607 608 616 625 634 638 637 637 637 638 638 639 640 642 644 645 648 652 654 657 660 663 665 668 671 672 675 680 683 685 688 692 694 696 699 701 703 705
591 589 590 591 591 599 597 596 591 594 595 598 600 602 605 605 607 609 617 627 637 639 639 639 639 640 641 643 646 648 650 653 655 659 662 664 668 672 674 676 679 681 684 688 690 693 696 699 701 702 704 706 707 710
586 595 591 596 593 597 596 595 593 593 600 601 603 605 608 604 609 612 618 632 636 638 640 642 643 643 646 651 654 656 657 659 662 665 670 670 673 679 682 685 688 691 694 695 697 699 702 704 706 708 710 711 713 716
584 592 588 587 589 589 588 594 596 597 595 605 610 604 603 608 614 618 625 633 637 640 642 644 646 649 652 654 657 661 665 667 668 671 676 677 680 683 687 691 694 698 699 700 701 703 706 709 711 713 715 717 719 721
584 587 582 578 578 579 584 585 586 591 600 603 603 606 606 611 619 633 637 640 643 645 644 646 649 654 658 662 665 668 670 673 675 680 683 683 686 689 692 695 699 703 704 705 706 707 710 713 716 719 722 724 726 727
579 579 585 579 580 582 586 587 591 594 593 592 597 605 605 613 628 640 644 648 648 648 650 652 656 660 664 668 672 675 678 681 683 685 688 693 696 698 700 702 704 706 707 709 711 713 715 717 720 723 725 727 730 731
579 577 581 589 587 592 596 596 593 596 590 593 604 616 631 642 646 646 649 650 653 654 657 660 666 668 671 675 678 681 683 684 685 688 692 699 703 709 709 709 710 711 713 714 716 717 719 721 723 726 729 731 734 736
581 581 588 596 599 607 611 609 608 608 605 608 618 633 642 649 652 651 653 655 656 659 662 665 668 671 674 676 680 683 684 686 688 690 693 700 706 710 712 713 715 717 718 719 721 724 725 727 729 731 734 736 738 740
580 585 593 598 607 614 614 613 612 612 612 616 621 629 640 650 656 659 659 659 661 664 666 668 672 675 677 680 683 685 691 694 694 694 697 704 708 712 714 716 718 720 722 724 726 728 730 732 734 736 739 740 743 744
584 588 596 603 611 616 615 617 618 623 626 629 634 639 642 643 654 665 667 665 664 666 670 672 675 680 682 683 686 689 693 698 701 703 705 708 711 714 717 719 721 723 725 727 729 732 734 735 738 741 742 745 747 749
589 592 598 603 608 612 615 614 618 623 627 631 634 639 642 648 660 671 673 671 671 673 675 679 682 684 686 689 692 695 698 701 704 707 710 712 715 717 720 722 724 726 728 730 733 735 737 740 742 744 747 748 750 751